Time,TemperatureF,DewpointF,PressureIn,WindDirection,WindDirectionDegrees,WindSpeedMPH,WindSpeedGustMPH,Humidity,HourlyPrecipIn,Conditions,Clouds,dailyrainin,SoftwareType,DateUTC
2013-09-24 00:02:00,40.5,39.7,31.02,NNW,346,0.0,0.0,97,0.00,CLR,CLR,0.00,WeatherDisplay:10.37,2013-09-24 04:02:00,
2013-09-24 00:07:00,40.5,39.7,31.02,NNW,346,0.0,0.0,97,0.00,CLR,CLR,0.00,WeatherDisplay:10.37,2013-09-24 04:07:00,
2013-09-24 00:12:00,40.4,39.6,31.02,NNW,346,0.0,0.0,97,0.00,CLR,CLR,0.00,WeatherDisplay:10.37,2013-09-24 04:12:00,
2013-09-24 00:17:00,40.3,39.5,31.02,NNW,346,0.0,0.0,97,0.00,CLR,CLR,0.00,WeatherDisplay:10.37,2013-09-24 04:17:00,
2013-09-24 00:22:00,40.2,39.4,31.02,NNW,346,0.0,0.0,97,0.00,CLR,CLR,0.00,WeatherDisplay:10.37,2013-09-24 04:22:00,
2013-09-24 00:27:00,40.1,39.3,31.02,NNW,346,0.0,0.0,97,0.00,CLR,CLR,0.00,WeatherDisplay:10.37,2013-09-24 04:27:00,
2013-09-24 00:32:00,40.1,39.3,31.02,NNW,346,0.0,0.0,97,0.00,CLR,CLR,0.00,WeatherDisplay:10.37,2013-09-24 04:32:00,
2013-09-24 00:37:00,40.0,39.2,31.02,NNW,346,0.0,0.0,97,0.00,CLR,CLR,0.00,WeatherDisplay:10.37,2013-09-24 04:37:00,
2013-09-24 00:42:00,39.9,39.1,31.02,NNW,346,0.0,0.0,97,0.00,CLR,CLR,0.00,WeatherDisplay:10.37,2013-09-24 04:42:00,
2013-09-24 00:47:00,39.7,38.9,31.03,NNW,346,0.0,0.0,97,0.00,CLR,CLR,0.00,WeatherDisplay:10.37,2013-09-24 04:47:00,
2013-09-24 00:52:00,39.7,38.9,31.03,NNW,346,0.0,0.0,97,0.00,CLR,CLR,0.00,WeatherDisplay:10.37,2013-09-24 04:52:00,
2013-09-24 00:57:00,39.6,38.8,31.03,NNW,346,0.0,0.0,97,0.00,CLR,CLR,0.00,WeatherDisplay:10.37,2013-09-24 04:57:00,
2013-09-24 01:02:00,39.6,38.8,31.03,NNW,346,0.0,0.0,97,0.00,CLR,CLR,0.00,WeatherDisplay:10.37,2013-09-24 05:02:00,
2013-09-24 01:07:00,39.5,38.7,31.03,NNW,346,0.0,0.0,97,0.00,CLR,CLR,0.00,WeatherDisplay:10.37,2013-09-24 05:07:00,
2013-09-24 01:12:00,39.5,38.7,31.03,NNW,346,0.0,0.0,97,0.00,CLR,CLR,0.00,WeatherDisplay:10.37,2013-09-24 05:12:00,
2013-09-24 01:17:00,39.5,38.7,31.03,NNW,346,0.0,0.0,97,0.00,CLR,CLR,0.00,WeatherDisplay:10.37,2013-09-24 05:17:00,
2013-09-24 01:22:00,39.4,38.6,31.03,NNW,346,0.0,0.0,97,0.00,CLR,CLR,0.00,WeatherDisplay:10.37,2013-09-24 05:22:00,
2013-09-24 01:27:00,39.4,38.6,31.03,NNW,346,0.0,0.0,97,0.00,CLR,CLR,0.00,WeatherDisplay:10.37,2013-09-24 05:27:00,
2013-09-24 01:32:00,39.4,38.6,31.03,NNW,346,0.0,0.0,97,0.00,CLR,CLR,0.00,WeatherDisplay:10.37,2013-09-24 05:32:00,
2013-09-24 01:37:00,39.4,38.6,31.03,NNW,346,0.0,0.0,97,0.00,CLR,CLR,0.00,WeatherDisplay:10.37,2013-09-24 05:37:00,
2013-09-24 01:42:00,39.5,38.7,31.03,NNW,346,0.0,0.0,97,0.00,CLR,CLR,0.00,WeatherDisplay:10.37,2013-09-24 05:42:00,
2013-09-24 01:47:00,39.6,38.8,31.03,NNW,346,0.0,0.0,97,0.00,CLR,CLR,0.00,WeatherDisplay:10.37,2013-09-24 05:47:00,
2013-09-24 01:52:00,39.7,38.9,31.03,NNW,346,0.0,0.0,97,0.00,CLR,CLR,0.00,WeatherDisplay:10.37,2013-09-24 05:52:00,
2013-09-24 01:57:00,39.8,39.3,31.04,NNW,346,0.0,0.0,98,0.00,CLR,CLR,0.00,WeatherDisplay:10.37,2013-09-24 05:57:00,
2013-09-24 02:02:00,39.8,39.3,31.04,NNW,346,0.0,0.0,98,0.00,CLR,CLR,0.00,WeatherDisplay:10.37,2013-09-24 06:02:00,
2013-09-24 02:07:00,39.8,39.3,31.04,NNW,346,0.0,0.0,98,0.00,CLR,CLR,0.00,WeatherDisplay:10.37,2013-09-24 06:07:00,
2013-09-24 02:12:00,39.8,39.3,31.04,NNW,346,0.0,0.0,98,0.00,CLR,CLR,0.00,WeatherDisplay:10.37,2013-09-24 06:12:00,
2013-09-24 02:17:00,39.7,38.9,31.04,NNW,346,0.0,0.0,97,0.00,CLR,CLR,0.00,WeatherDisplay:10.37,2013-09-24 06:17:00,
2013-09-24 02:22:00,39.7,38.9,31.04,NNW,346,0.0,0.0,97,0.00,CLR,CLR,0.00,WeatherDisplay:10.37,2013-09-24 06:22:00,
2013-09-24 02:27:00,39.7,38.9,31.04,NNW,346,0.0,0.0,97,0.00,CLR,CLR,0.00,WeatherDisplay:10.37,2013-09-24 06:27:00,
2013-09-24 02:32:00,39.6,38.8,31.04,NNW,346,0.0,0.0,97,0.00,CLR,CLR,0.00,WeatherDisplay:10.37,2013-09-24 06:32:00,
2013-09-24 02:37:00,39.5,38.7,31.03,NNW,346,0.0,0.0,97,0.00,CLR,CLR,0.00,WeatherDisplay:10.37,2013-09-24 06:37:00,
2013-09-24 02:42:00,39.3,38.5,31.03,NNW,346,0.0,0.0,97,0.00,CLR,CLR,0.00,WeatherDisplay:10.37,2013-09-24 06:42:00,
2013-09-24 02:47:00,39.2,38.4,31.03,NNW,346,0.0,0.0,97,0.00,CLR,CLR,0.00,WeatherDisplay:10.37,2013-09-24 06:47:00,
2013-09-24 02:52:00,39.0,38.2,31.03,NNW,346,0.0,0.0,97,0.00,CLR,CLR,0.00,WeatherDisplay:10.37,2013-09-24 06:52:00,
2013-09-24 02:57:00,38.9,38.1,31.03,NNW,346,0.0,0.0,97,0.00,CLR,CLR,0.00,WeatherDisplay:10.37,2013-09-24 06:57:00,
2013-09-24 03:02:00,38.8,38.0,31.03,NNW,346,0.0,0.0,97,0.00,CLR,CLR,0.00,WeatherDisplay:10.37,2013-09-24 07:02:00,
2013-09-24 03:07:00,38.7,37.9,31.03,NNW,346,0.0,0.0,97,0.00,CLR,CLR,0.00,WeatherDisplay:10.37,2013-09-24 07:07:00,
2013-09-24 03:12:00,38.5,37.7,31.03,NNW,346,0.0,0.0,97,0.00,CLR,CLR,0.00,WeatherDisplay:10.37,2013-09-24 07:12:00,
2013-09-24 03:17:00,38.4,37.6,31.03,NNW,346,0.0,0.0,97,0.00,CLR,CLR,0.00,WeatherDisplay:10.37,2013-09-24 07:17:00,
2013-09-24 03:22:00,38.3,37.5,31.03,NNW,346,0.0,0.0,97,0.00,CLR,CLR,0.00,WeatherDisplay:10.37,2013-09-24 07:22:00,
2013-09-24 03:27:00,38.2,37.4,31.03,NNW,346,0.0,0.0,97,0.00,CLR,CLR,0.00,WeatherDisplay:10.37,2013-09-24 07:27:00,
2013-09-24 03:32:00,38.1,37.3,31.03,NNW,346,0.0,0.0,97,0.00,CLR,CLR,0.00,WeatherDisplay:10.37,2013-09-24 07:32:00,
2013-09-24 03:37:00,37.9,37.1,31.03,NNW,346,0.0,0.0,97,0.00,CLR,CLR,0.00,WeatherDisplay:10.37,2013-09-24 07:37:00,
2013-09-24 03:42:00,37.8,37.0,31.03,NNW,346,0.0,0.0,97,0.01,RA,RA,0.01,WeatherDisplay:10.37,2013-09-24 07:42:00,
2013-09-24 03:47:00,37.7,36.9,31.02,NNW,346,0.0,0.0,97,0.00,RA,RA,0.01,WeatherDisplay:10.37,2013-09-24 07:47:00,
2013-09-24 03:52:00,37.5,36.7,31.02,NNW,346,0.0,0.0,97,0.00,CLR,CLR,0.01,WeatherDisplay:10.37,2013-09-24 07:52:00,
2013-09-24 03:57:00,37.4,36.6,31.02,NNW,346,0.0,0.0,97,0.00,CLR,CLR,0.01,WeatherDisplay:10.37,2013-09-24 07:57:00,
2013-09-24 04:02:00,37.3,36.6,31.03,NNW,346,0.0,0.0,97,0.00,CLR,CLR,0.01,WeatherDisplay:10.37,2013-09-24 08:02:00,
2013-09-24 04:07:00,37.2,36.4,31.03,NNW,346,0.0,0.0,97,0.00,CLR,CLR,0.01,WeatherDisplay:10.37,2013-09-24 08:07:00,
2013-09-24 04:12:00,37.0,36.3,31.03,NNW,346,0.0,0.0,97,0.00,CLR,CLR,0.01,WeatherDisplay:10.37,2013-09-24 08:12:00,
2013-09-24 04:17:00,36.9,36.2,31.03,NNW,346,0.0,0.0,97,0.00,CLR,CLR,0.01,WeatherDisplay:10.37,2013-09-24 08:17:00,
2013-09-24 04:22:00,36.9,36.1,31.03,NNW,346,0.0,0.0,97,0.00,CLR,CLR,0.01,WeatherDisplay:10.37,2013-09-24 08:22:00,
2013-09-24 04:27:00,36.8,36.0,31.03,NNW,346,0.0,0.0,97,0.00,CLR,CLR,0.01,WeatherDisplay:10.37,2013-09-24 08:27:00,
2013-09-24 04:32:00,36.7,35.9,31.03,NNW,346,0.0,0.0,97,0.00,CLR,CLR,0.01,WeatherDisplay:10.37,2013-09-24 08:32:00,
2013-09-24 04:37:00,36.7,36.0,31.03,NNW,346,0.0,0.0,97,0.00,CLR,CLR,0.01,WeatherDisplay:10.37,2013-09-24 08:37:00,
2013-09-24 04:42:00,36.7,36.0,31.03,NNW,346,0.0,0.0,97,0.00,CLR,CLR,0.01,WeatherDisplay:10.37,2013-09-24 08:42:00,
2013-09-24 04:47:00,36.7,35.9,31.03,NNW,346,0.0,0.0,97,0.00,CLR,CLR,0.01,WeatherDisplay:10.37,2013-09-24 08:47:00,
2013-09-24 04:52:00,36.6,36.1,31.04,NNW,346,0.0,0.0,98,0.00,CLR,CLR,0.01,WeatherDisplay:10.37,2013-09-24 08:52:00,
2013-09-24 04:57:00,36.6,36.1,31.04,NNW,346,0.0,0.0,98,0.00,CLR,CLR,0.01,WeatherDisplay:10.37,2013-09-24 08:57:00,
2013-09-24 05:02:00,36.6,36.1,31.03,NNW,346,0.0,0.0,98,0.00,CLR,CLR,0.01,WeatherDisplay:10.37,2013-09-24 09:02:00,
2013-09-24 05:07:00,36.5,36.0,31.03,NNW,346,0.0,0.0,98,0.00,CLR,CLR,0.01,WeatherDisplay:10.37,2013-09-24 09:07:00,
2013-09-24 05:12:00,36.5,36.0,31.04,NNW,346,0.0,0.0,98,0.00,CLR,CLR,0.01,WeatherDisplay:10.37,2013-09-24 09:12:00,
2013-09-24 05:17:00,36.4,35.9,31.03,NNW,346,0.0,0.0,98,0.00,CLR,CLR,0.01,WeatherDisplay:10.37,2013-09-24 09:17:00,
2013-09-24 05:22:00,36.3,35.5,31.04,NNW,346,0.0,0.0,97,0.00,CLR,CLR,0.01,WeatherDisplay:10.37,2013-09-24 09:22:00,
2013-09-24 05:27:00,36.2,35.4,31.04,NNW,346,0.0,0.0,97,0.00,CLR,CLR,0.01,WeatherDisplay:10.37,2013-09-24 09:27:00,
2013-09-24 05:32:00,36.1,35.3,31.03,NNW,346,0.0,0.0,97,0.00,CLR,CLR,0.01,WeatherDisplay:10.37,2013-09-24 09:32:00,
2013-09-24 05:37:00,36.1,35.3,31.03,NNW,346,0.0,0.0,97,0.00,CLR,CLR,0.01,WeatherDisplay:10.37,2013-09-24 09:37:00,
2013-09-24 05:42:00,36.1,35.6,31.04,NNW,346,0.0,0.0,98,0.00,CLR,CLR,0.01,WeatherDisplay:10.37,2013-09-24 09:42:00,
2013-09-24 05:47:00,36.1,35.6,31.04,NNW,346,0.0,0.0,98,0.00,CLR,CLR,0.01,WeatherDisplay:10.37,2013-09-24 09:47:00,
2013-09-24 05:52:00,36.1,35.6,31.03,NNW,346,0.0,0.0,98,0.00,CLR,CLR,0.01,WeatherDisplay:10.37,2013-09-24 09:52:00,
2013-09-24 05:57:00,36.0,35.5,31.03,NNW,346,0.0,0.0,98,0.00,CLR,CLR,0.01,WeatherDisplay:10.37,2013-09-24 09:57:00,
2013-09-24 06:02:00,36.0,35.5,31.04,NNW,346,0.0,0.0,98,0.00,CLR,CLR,0.01,WeatherDisplay:10.37,2013-09-24 10:02:00,
2013-09-24 06:07:00,35.9,35.4,31.03,NNW,346,0.0,0.0,98,0.00,CLR,CLR,0.01,WeatherDisplay:10.37,2013-09-24 10:07:00,
2013-09-24 06:12:00,35.8,35.3,31.03,NNW,346,0.0,0.0,98,0.00,CLR,CLR,0.01,WeatherDisplay:10.37,2013-09-24 10:12:00,
2013-09-24 06:17:00,35.7,34.9,31.03,NNW,346,0.0,0.0,97,0.00,CLR,CLR,0.01,WeatherDisplay:10.37,2013-09-24 10:17:00,
2013-09-24 06:22:00,35.7,35.2,31.03,NNW,346,0.0,0.0,98,0.00,CLR,CLR,0.01,WeatherDisplay:10.37,2013-09-24 10:22:00,
2013-09-24 06:27:00,35.6,35.1,31.03,NNW,346,0.0,0.0,98,0.00,CLR,CLR,0.01,WeatherDisplay:10.37,2013-09-24 10:27:00,
2013-09-24 06:32:00,35.6,35.1,31.03,NNW,346,0.0,0.0,98,0.00,CLR,CLR,0.01,WeatherDisplay:10.37,2013-09-24 10:32:00,
2013-09-24 06:37:00,35.5,35.0,31.04,NNW,346,0.0,0.0,98,0.00,CLR,CLR,0.01,WeatherDisplay:10.37,2013-09-24 10:37:00,
2013-09-24 06:42:00,35.6,35.0,31.04,NNW,346,0.0,0.0,98,0.00,CLR,CLR,0.01,WeatherDisplay:10.37,2013-09-24 10:42:00,
2013-09-24 06:47:00,35.5,34.9,31.04,NNW,346,0.0,0.0,98,0.00,CLR,CLR,0.01,WeatherDisplay:10.37,2013-09-24 10:47:00,
2013-09-24 06:52:00,35.3,34.8,31.04,NNW,346,0.0,0.0,98,0.00,CLR,CLR,0.01,WeatherDisplay:10.37,2013-09-24 10:52:00,
2013-09-24 06:57:00,35.3,34.8,31.04,NNW,346,0.0,0.0,98,0.00,CLR,CLR,0.01,WeatherDisplay:10.37,2013-09-24 10:57:00,
2013-09-24 07:02:00,35.4,34.9,31.04,NNW,346,0.0,0.0,98,0.00,CLR,CLR,0.01,WeatherDisplay:10.37,2013-09-24 11:02:00,
2013-09-24 07:07:00,35.4,34.9,31.04,NNW,346,0.0,0.0,98,0.00,CLR,CLR,0.01,WeatherDisplay:10.37,2013-09-24 11:07:00,
2013-09-24 07:12:00,35.4,34.9,31.04,NNW,346,0.0,0.0,98,0.00,CLR,CLR,0.01,WeatherDisplay:10.37,2013-09-24 11:12:00,
2013-09-24 07:17:00,35.4,34.9,31.04,NNW,346,0.0,0.0,98,0.00,CLR,CLR,0.01,WeatherDisplay:10.37,2013-09-24 11:17:00,
2013-09-24 07:22:00,35.3,34.8,31.04,NNW,346,0.0,0.0,98,0.00,CLR,CLR,0.01,WeatherDisplay:10.37,2013-09-24 11:22:00,
2013-09-24 07:27:00,35.5,35.0,31.04,NNW,346,0.0,0.0,98,0.00,CLR,CLR,0.01,WeatherDisplay:10.37,2013-09-24 11:27:00,
2013-09-24 07:32:00,35.6,35.1,31.04,NNW,346,0.0,0.0,98,0.00,CLR,CLR,0.01,WeatherDisplay:10.37,2013-09-24 11:32:00,
2013-09-24 07:37:00,35.7,35.2,31.04,NNW,346,0.0,0.0,98,0.00,CLR,CLR,0.01,WeatherDisplay:10.37,2013-09-24 11:37:00,
2013-09-24 07:42:00,35.7,35.2,31.04,NNW,346,0.0,0.0,98,0.00,CLR,CLR,0.01,WeatherDisplay:10.37,2013-09-24 11:42:00,
2013-09-24 07:47:00,35.7,35.2,31.04,NNW,346,0.0,0.0,98,0.00,CLR,CLR,0.01,WeatherDisplay:10.37,2013-09-24 11:47:00,
2013-09-24 07:52:00,35.7,35.2,31.04,NNW,346,0.0,0.0,98,0.00,CLR,CLR,0.01,WeatherDisplay:10.37,2013-09-24 11:52:00,
2013-09-24 07:57:00,35.8,35.3,31.04,NNW,346,0.0,0.0,98,0.00,CLR,CLR,0.01,WeatherDisplay:10.37,2013-09-24 11:57:00,
2013-09-24 08:12:00,36.3,35.8,31.04,NNW,346,0.0,0.0,98,0.00,CLR,CLR,0.01,WeatherDisplay:10.37,2013-09-24 12:12:00,
2013-09-24 08:17:00,36.5,36.0,31.04,NNW,346,0.0,0.0,98,0.00,CLR,CLR,0.01,WeatherDisplay:10.37,2013-09-24 12:17:00,
2013-09-24 08:22:00,36.8,36.3,31.04,NNW,346,0.0,0.0,98,0.00,CLR,CLR,0.01,WeatherDisplay:10.37,2013-09-24 12:22:00,
2013-09-24 08:27:00,37.6,37.1,31.04,NNW,346,0.0,0.0,98,0.00,CLR,CLR,0.01,WeatherDisplay:10.37,2013-09-24 12:27:00,
2013-09-24 08:32:00,38.3,37.7,31.04,NNW,346,0.0,0.0,98,0.00,CLR,CLR,0.01,WeatherDisplay:10.37,2013-09-24 12:32:00,
2013-09-24 08:37:00,39.0,38.5,31.04,NNW,346,0.0,0.0,98,0.00,CLR,CLR,0.01,WeatherDisplay:10.37,2013-09-24 12:37:00,
2013-09-24 08:42:00,40.0,39.7,31.04,NNW,346,0.0,0.0,99,0.00,CLR,CLR,0.01,WeatherDisplay:10.37,2013-09-24 12:42:00,
2013-09-24 08:47:00,41.2,40.9,31.04,NNW,346,0.0,0.0,99,0.00,CLR,CLR,0.01,WeatherDisplay:10.37,2013-09-24 12:47:00,
2013-09-24 08:52:00,42.1,41.8,31.05,NNW,346,0.0,0.0,99,0.00,CLR,CLR,0.01,WeatherDisplay:10.37,2013-09-24 12:52:00,
2013-09-24 08:57:00,42.9,42.7,31.05,NNW,346,0.0,0.0,99,0.00,CLR,CLR,0.01,WeatherDisplay:10.37,2013-09-24 12:57:00,
2013-09-24 09:02:00,43.7,43.4,31.04,NNW,346,0.0,0.0,99,0.00,CLR,CLR,0.01,WeatherDisplay:10.37,2013-09-24 13:02:00,
2013-09-24 09:07:00,44.2,43.9,31.05,NNW,346,0.0,0.0,99,0.00,CLR,CLR,0.01,WeatherDisplay:10.37,2013-09-24 13:07:00,
2013-09-24 09:12:00,44.8,44.5,31.04,NNW,346,0.0,0.0,99,0.00,CLR,CLR,0.01,WeatherDisplay:10.37,2013-09-24 13:12:00,
2013-09-24 09:17:00,45.8,45.5,31.04,NNW,346,0.0,0.0,99,0.00,CLR,CLR,0.01,WeatherDisplay:10.37,2013-09-24 13:17:00,
2013-09-24 09:22:00,46.8,46.5,31.04,NNW,346,0.0,0.0,99,0.00,CLR,CLR,0.01,WeatherDisplay:10.37,2013-09-24 13:22:00,
2013-09-24 09:27:00,47.5,47.2,31.04,NNW,346,0.0,1.0,99,0.00,CLR,CLR,0.01,WeatherDisplay:10.37,2013-09-24 13:27:00,
2013-09-24 09:32:00,48.3,48.0,31.04,NNW,346,0.0,1.0,99,0.00,CLR,CLR,0.01,WeatherDisplay:10.37,2013-09-24 13:32:00,
2013-09-24 09:42:00,48.8,48.5,31.04,NNW,346,0.0,2.0,99,0.00,CLR,CLR,0.01,WeatherDisplay:10.37,2013-09-24 13:42:00,
2013-09-24 09:47:00,49.5,49.3,31.04,NNW,346,0.0,1.0,99,0.00,CLR,CLR,0.01,WeatherDisplay:10.37,2013-09-24 13:47:00,
2013-09-24 09:52:00,49.7,49.4,31.04,NNW,344,0.0,2.0,99,0.00,CLR,CLR,0.01,WeatherDisplay:10.37,2013-09-24 13:52:00,
2013-09-24 09:57:00,50.3,49.7,31.04,NNW,335,0.0,2.0,98,0.00,CLR,CLR,0.01,WeatherDisplay:10.37,2013-09-24 13:57:00,
2013-09-24 10:02:00,51.1,50.5,31.04,NNW,336,0.0,0.0,98,0.00,CLR,CLR,0.01,WeatherDisplay:10.37,2013-09-24 14:02:00,
2013-09-24 10:07:00,52.0,51.2,31.04,NNW,336,0.0,0.0,97,0.00,CLR,CLR,0.01,WeatherDisplay:10.37,2013-09-24 14:07:00,
2013-09-24 10:12:00,52.6,51.5,31.04,NNW,336,0.0,2.0,96,0.00,CLR,CLR,0.01,WeatherDisplay:10.37,2013-09-24 14:12:00,
2013-09-24 10:17:00,53.2,51.5,31.04,NNW,336,0.0,0.0,94,0.00,CLR,CLR,0.01,WeatherDisplay:10.37,2013-09-24 14:17:00,
2013-09-24 10:22:00,54.0,51.7,31.04,NNW,336,0.0,2.0,92,0.00,CLR,CLR,0.01,WeatherDisplay:10.37,2013-09-24 14:22:00,
2013-09-24 10:27:00,54.4,51.8,31.03,NNW,335,0.0,1.0,91,0.00,CLR,CLR,0.01,WeatherDisplay:10.37,2013-09-24 14:27:00,
2013-09-24 10:32:00,55.1,51.6,31.04,NNW,335,0.0,2.0,88,0.00,CLR,CLR,0.01,WeatherDisplay:10.37,2013-09-24 14:32:00,
2013-09-24 10:37:00,55.4,51.6,31.04,NNW,334,0.0,1.0,87,0.00,CLR,CLR,0.01,WeatherDisplay:10.37,2013-09-24 14:37:00,
2013-09-24 10:42:00,55.9,52.4,31.04,NNW,334,0.0,1.0,88,0.00,CLR,CLR,0.01,WeatherDisplay:10.37,2013-09-24 14:42:00,
2013-09-24 10:47:00,56.2,52.1,31.03,NNW,334,0.0,2.0,86,0.00,CLR,CLR,0.01,WeatherDisplay:10.37,2013-09-24 14:47:00,
2013-09-24 10:52:00,56.6,52.4,31.03,NNW,334,0.0,1.0,86,0.00,CLR,CLR,0.01,WeatherDisplay:10.37,2013-09-24 14:52:00,
2013-09-24 10:57:00,57.3,52.5,31.03,NNW,334,0.0,1.0,84,0.00,CLR,CLR,0.01,WeatherDisplay:10.37,2013-09-24 14:57:00,
2013-09-24 11:02:00,57.6,52.5,31.03,West,272,1.0,4.0,83,0.00,CLR,CLR,0.01,WeatherDisplay:10.37,2013-09-24 15:02:00,
2013-09-24 11:07:00,57.9,53.1,31.02,SW,236,0.0,2.0,84,0.00,CLR,CLR,0.01,WeatherDisplay:10.37,2013-09-24 15:07:00,
2013-09-24 11:12:00,58.4,53.2,31.02,SW,234,0.0,1.0,83,0.00,CLR,CLR,0.01,WeatherDisplay:10.37,2013-09-24 15:12:00,
2013-09-24 11:17:00,59.0,53.2,31.02,South,191,1.0,5.0,81,0.00,CLR,CLR,0.01,WeatherDisplay:10.37,2013-09-24 15:17:00,
2013-09-24 11:22:00,59.3,52.8,31.02,NNW,348,1.0,7.0,79,0.00,CLR,CLR,0.01,WeatherDisplay:10.37,2013-09-24 15:22:00,
2013-09-24 11:27:00,59.1,52.9,31.02,North,349,0.0,5.0,80,0.00,CLR,CLR,0.01,WeatherDisplay:10.37,2013-09-24 15:27:00,
2013-09-24 11:32:00,59.4,52.9,31.01,NNE,21,0.0,5.0,79,0.00,CLR,CLR,0.01,WeatherDisplay:10.37,2013-09-24 15:32:00,
2013-09-24 11:37:00,60.2,53.3,31.01,ESE,107,1.0,6.0,78,0.00,CLR,CLR,0.01,WeatherDisplay:10.37,2013-09-24 15:37:00,
2013-09-24 11:42:00,61.2,53.5,31.01,ESE,102,0.0,5.0,76,0.00,CLR,CLR,0.01,WeatherDisplay:10.37,2013-09-24 15:42:00,
2013-09-24 11:47:00,61.6,53.6,31.01,NE,36,2.0,4.0,75,0.00,CLR,CLR,0.01,WeatherDisplay:10.37,2013-09-24 15:47:00,
2013-09-24 11:52:00,61.8,53.4,31.01,North,10,0.0,1.0,74,0.00,CLR,CLR,0.01,WeatherDisplay:10.37,2013-09-24 15:52:00,
2013-09-24 11:57:00,61.8,53.0,31.00,North,11,0.0,1.0,73,0.00,CLR,CLR,0.01,WeatherDisplay:10.37,2013-09-24 15:57:00,
2013-09-24 12:02:00,61.3,53.0,31.00,North,11,1.0,3.0,74,0.00,CLR,CLR,0.01,WeatherDisplay:10.37,2013-09-24 16:02:00,
2013-09-24 12:07:00,61.5,52.7,31.00,North,11,0.0,2.0,73,0.00,CLR,CLR,0.01,WeatherDisplay:10.37,2013-09-24 16:07:00,
2013-09-24 12:17:00,62.6,54.2,31.00,South,172,0.0,2.0,74,0.00,CLR,CLR,0.01,WeatherDisplay:10.37,2013-09-24 16:17:00,
2013-09-24 12:22:00,63.0,52.6,31.00,ESE,117,0.0,4.0,69,0.00,CLR,CLR,0.01,WeatherDisplay:10.37,2013-09-24 16:22:00,
2013-09-24 12:27:00,63.2,53.6,30.99,North,5,0.0,2.0,71,0.00,CLR,CLR,0.01,WeatherDisplay:10.37,2013-09-24 16:27:00,
2013-09-24 12:32:00,63.5,52.4,30.99,NNE,17,0.0,3.0,67,0.00,CLR,CLR,0.01,WeatherDisplay:10.37,2013-09-24 16:32:00,
2013-09-24 12:37:00,63.6,52.0,30.99,North,11,2.0,6.0,66,0.00,CLR,CLR,0.01,WeatherDisplay:10.37,2013-09-24 16:37:00,
2013-09-24 12:42:00,63.5,53.5,30.98,North,6,0.0,2.0,70,0.00,CLR,CLR,0.01,WeatherDisplay:10.37,2013-09-24 16:42:00,
2013-09-24 12:47:00,63.8,53.1,30.98,NNW,348,0.0,2.0,68,0.00,CLR,CLR,0.01,WeatherDisplay:10.37,2013-09-24 16:47:00,
2013-09-24 12:52:00,64.1,52.5,30.98,WSW,258,2.0,5.0,66,0.00,CLR,CLR,0.01,WeatherDisplay:10.37,2013-09-24 16:52:00,
2013-09-24 12:57:00,64.1,52.5,30.97,NW,317,1.0,6.0,66,0.00,CLR,CLR,0.01,WeatherDisplay:10.37,2013-09-24 16:57:00,
2013-09-24 13:02:00,64.1,53.3,30.97,NNW,338,1.0,3.0,68,0.00,CLR,CLR,0.01,WeatherDisplay:10.37,2013-09-24 17:02:00,
2013-09-24 13:07:00,63.7,52.5,30.97,North,352,1.0,5.0,67,0.00,CLR,CLR,0.01,WeatherDisplay:10.37,2013-09-24 17:07:00,
2013-09-24 13:12:00,63.9,53.5,30.97,North,355,0.0,1.0,69,0.00,CLR,CLR,0.01,WeatherDisplay:10.37,2013-09-24 17:12:00,
2013-09-24 13:17:00,64.7,53.9,30.97,NE,41,2.0,5.0,68,0.00,CLR,CLR,0.01,WeatherDisplay:10.37,2013-09-24 17:17:00,
2013-09-24 13:22:00,64.9,52.0,30.96,ENE,73,0.0,5.0,63,0.00,CLR,CLR,0.01,WeatherDisplay:10.37,2013-09-24 17:22:00,
2013-09-24 13:27:00,65.2,52.7,30.96,East,91,0.0,4.0,64,0.00,CLR,CLR,0.01,WeatherDisplay:10.37,2013-09-24 17:27:00,
2013-09-24 13:32:00,65.1,51.7,30.96,NW,313,0.0,6.0,62,0.00,CLR,CLR,0.01,WeatherDisplay:10.37,2013-09-24 17:32:00,
2013-09-24 13:37:00,65.2,52.3,30.96,WNW,298,1.0,5.0,63,0.00,CLR,CLR,0.01,WeatherDisplay:10.37,2013-09-24 17:37:00,
2013-09-24 13:42:00,65.3,52.8,30.95,SE,142,1.0,5.0,64,0.00,CLR,CLR,0.01,WeatherDisplay:10.37,2013-09-24 17:42:00,
2013-09-24 13:47:00,65.4,52.9,30.95,SE,136,1.0,5.0,64,0.00,CLR,CLR,0.01,WeatherDisplay:10.37,2013-09-24 17:47:00,
2013-09-24 13:52:00,66.0,54.3,30.95,ESE,123,2.0,4.0,66,0.00,CLR,CLR,0.01,WeatherDisplay:10.37,2013-09-24 17:52:00,
2013-09-24 13:57:00,66.2,53.6,30.95,NNE,20,1.0,8.0,64,0.00,CLR,CLR,0.01,WeatherDisplay:10.37,2013-09-24 17:57:00,
2013-09-24 14:02:00,65.8,53.3,30.95,North,6,1.0,4.0,64,0.00,CLR,CLR,0.01,WeatherDisplay:10.37,2013-09-24 18:02:00,
2013-09-24 14:07:00,66.0,53.5,30.95,North,5,1.0,4.0,64,0.00,CLR,CLR,0.01,WeatherDisplay:10.37,2013-09-24 18:07:00,
2013-09-24 14:17:00,66.4,52.5,30.94,NW,316,0.0,6.0,61,0.00,CLR,CLR,0.01,WeatherDisplay:10.37,2013-09-24 18:17:00,
2013-09-24 14:22:00,66.6,53.2,30.94,WNW,297,1.0,8.0,62,0.00,CLR,CLR,0.01,WeatherDisplay:10.37,2013-09-24 18:22:00,
2013-09-24 14:32:00,67.2,52.4,30.94,SW,226,0.0,2.0,59,0.00,CLR,CLR,0.01,WeatherDisplay:10.37,2013-09-24 18:32:00,
2013-09-24 14:37:00,67.4,53.5,30.93,NW,323,0.0,5.0,61,0.00,CLR,CLR,0.01,WeatherDisplay:10.37,2013-09-24 18:37:00,
2013-09-24 14:42:00,67.1,51.8,30.93,North,350,1.0,6.0,58,0.00,CLR,CLR,0.01,WeatherDisplay:10.37,2013-09-24 18:42:00,
2013-09-24 14:47:00,67.1,52.7,30.93,North,1,2.0,5.0,60,0.00,CLR,CLR,0.01,WeatherDisplay:10.37,2013-09-24 18:47:00,
2013-09-24 14:52:00,66.9,51.6,30.93,North,9,1.0,5.0,58,0.00,CLR,CLR,0.01,WeatherDisplay:10.37,2013-09-24 18:52:00,
2013-09-24 14:57:00,67.0,53.5,30.92,NNW,341,0.0,5.0,62,0.00,CLR,CLR,0.01,WeatherDisplay:10.37,2013-09-24 18:57:00,
2013-09-24 15:02:00,67.5,53.5,30.92,NW,325,0.0,1.0,61,0.00,CLR,CLR,0.01,WeatherDisplay:10.37,2013-09-24 19:02:00,
2013-09-24 15:07:00,68.3,53.4,30.92,NW,325,0.0,1.0,59,0.00,CLR,CLR,0.01,WeatherDisplay:10.37,2013-09-24 19:07:00,
2013-09-24 15:12:00,68.4,53.5,30.92,NW,325,1.0,4.0,59,0.00,CLR,CLR,0.01,WeatherDisplay:10.37,2013-09-24 19:12:00,
2013-09-24 15:17:00,68.1,53.3,30.92,NNW,344,1.0,7.0,59,0.00,CLR,CLR,0.01,WeatherDisplay:10.37,2013-09-24 19:17:00,
2013-09-24 15:22:00,67.7,52.9,30.92,North,349,1.0,5.0,59,0.00,CLR,CLR,0.01,WeatherDisplay:10.37,2013-09-24 19:22:00,
2013-09-24 15:27:00,67.8,53.4,30.91,North,351,1.0,5.0,60,0.00,CLR,CLR,0.01,WeatherDisplay:10.37,2013-09-24 19:27:00,
2013-09-24 15:32:00,67.7,52.9,30.91,North,353,1.0,5.0,59,0.00,CLR,CLR,0.01,WeatherDisplay:10.37,2013-09-24 19:32:00,
2013-09-24 15:37:00,67.8,55.2,30.91,NNW,348,0.0,4.0,64,0.00,CLR,CLR,0.01,WeatherDisplay:10.37,2013-09-24 19:37:00,
2013-09-24 15:42:00,68.1,55.0,30.91,NNW,344,0.0,7.0,63,0.00,CLR,CLR,0.01,WeatherDisplay:10.37,2013-09-24 19:42:00,
2013-09-24 15:47:00,68.1,53.2,30.91,North,350,0.0,6.0,59,0.00,CLR,CLR,0.01,WeatherDisplay:10.37,2013-09-24 19:47:00,
2013-09-24 15:52:00,68.0,52.7,30.90,NNW,348,0.0,2.0,58,0.00,CLR,CLR,0.01,WeatherDisplay:10.37,2013-09-24 19:52:00,
2013-09-24 15:57:00,68.5,53.6,30.90,North,352,2.0,5.0,59,0.00,CLR,CLR,0.01,WeatherDisplay:10.37,2013-09-24 19:57:00,
2013-09-24 16:02:00,68.7,54.7,30.90,NNW,347,0.0,2.0,61,0.00,CLR,CLR,0.01,WeatherDisplay:10.37,2013-09-24 20:02:00,
2013-09-24 16:07:00,68.8,54.3,30.90,NNW,344,0.0,2.0,60,0.00,CLR,CLR,0.01,WeatherDisplay:10.37,2013-09-24 20:07:00,
2013-09-24 16:12:00,68.9,54.0,30.90,North,350,2.0,5.0,59,0.00,CLR,CLR,0.01,WeatherDisplay:10.37,2013-09-24 20:12:00,
2013-09-24 16:17:00,68.6,55.5,30.90,NNW,347,2.0,6.0,63,0.00,CLR,CLR,0.01,WeatherDisplay:10.37,2013-09-24 20:17:00,
2013-09-24 16:22:00,68.1,55.9,30.90,North,351,5.0,7.0,65,0.00,CLR,CLR,0.01,WeatherDisplay:10.37,2013-09-24 20:22:00,
2013-09-24 16:27:00,67.5,56.2,30.90,NNW,347,1.0,6.0,67,0.00,CLR,CLR,0.01,WeatherDisplay:10.37,2013-09-24 20:27:00,
2013-09-24 16:32:00,67.1,55.8,30.90,NNW,341,5.0,7.0,67,0.00,CLR,CLR,0.01,WeatherDisplay:10.37,2013-09-24 20:32:00,
2013-09-24 16:37:00,66.6,55.7,30.90,NNW,347,5.0,8.0,68,0.00,CLR,CLR,0.01,WeatherDisplay:10.37,2013-09-24 20:37:00,
2013-09-24 16:42:00,66.3,56.2,30.90,North,350,1.0,10.0,70,0.00,CLR,CLR,0.01,WeatherDisplay:10.37,2013-09-24 20:42:00,
2013-09-24 16:47:00,66.1,56.0,30.90,North,350,1.0,7.0,70,0.00,CLR,CLR,0.01,WeatherDisplay:10.37,2013-09-24 20:47:00,
2013-09-24 16:52:00,66.0,56.4,30.90,North,3,0.0,8.0,71,0.00,CLR,CLR,0.01,WeatherDisplay:10.37,2013-09-24 20:52:00,
2013-09-24 16:57:00,65.9,55.8,30.90,North,357,2.0,10.0,70,0.00,CLR,CLR,0.01,WeatherDisplay:10.37,2013-09-24 20:57:00,
2013-09-24 17:02:00,65.9,55.8,30.90,NNW,344,5.0,8.0,70,0.00,CLR,CLR,0.01,WeatherDisplay:10.37,2013-09-24 21:02:00,
2013-09-24 17:07:00,65.6,56.4,30.90,NNW,343,2.0,7.0,72,0.00,CLR,CLR,0.01,WeatherDisplay:10.37,2013-09-24 21:07:00,
2013-09-24 17:12:00,65.4,55.7,30.90,North,359,1.0,7.0,71,0.00,CLR,CLR,0.01,WeatherDisplay:10.37,2013-09-24 21:12:00,
2013-09-24 17:17:00,65.5,56.3,30.90,North,7,2.0,6.0,72,0.00,CLR,CLR,0.01,WeatherDisplay:10.37,2013-09-24 21:17:00,
2013-09-24 17:22:00,65.5,55.8,30.91,North,359,5.0,6.0,71,0.00,CLR,CLR,0.01,WeatherDisplay:10.37,2013-09-24 21:22:00,
2013-09-24 17:27:00,65.1,55.5,30.90,North,2,3.0,8.0,71,0.00,CLR,CLR,0.01,WeatherDisplay:10.37,2013-09-24 21:27:00,
2013-09-24 17:32:00,64.8,55.6,30.91,NNE,14,2.0,7.0,72,0.00,CLR,CLR,0.01,WeatherDisplay:10.37,2013-09-24 21:32:00,
2013-09-24 17:37:00,64.5,55.3,30.91,North,11,1.0,8.0,72,0.00,CLR,CLR,0.01,WeatherDisplay:10.37,2013-09-24 21:37:00,
2013-09-24 17:42:00,64.4,55.6,30.90,North,354,0.0,4.0,73,0.00,CLR,CLR,0.01,WeatherDisplay:10.37,2013-09-24 21:42:00,
2013-09-24 17:47:00,64.4,55.5,30.90,North,1,2.0,6.0,73,0.00,CLR,CLR,0.01,WeatherDisplay:10.37,2013-09-24 21:47:00,
2013-09-24 17:52:00,64.1,55.6,30.90,NNW,348,2.0,5.0,74,0.00,CLR,CLR,0.01,WeatherDisplay:10.37,2013-09-24 21:52:00,
2013-09-24 17:57:00,64.0,55.5,30.90,NNW,341,2.0,6.0,74,0.00,CLR,CLR,0.01,WeatherDisplay:10.37,2013-09-24 21:57:00,
2013-09-24 18:02:00,63.8,55.7,30.90,North,355,0.0,5.0,75,0.00,CLR,CLR,0.01,WeatherDisplay:10.37,2013-09-24 22:02:00,
2013-09-24 18:07:00,63.7,55.6,30.90,North,349,1.0,3.0,75,0.00,CLR,CLR,0.01,WeatherDisplay:10.37,2013-09-24 22:07:00,
2013-09-24 18:12:00,63.6,55.5,30.90,North,349,1.0,3.0,75,0.00,CLR,CLR,0.01,WeatherDisplay:10.37,2013-09-24 22:12:00,
2013-09-24 18:17:00,63.4,55.3,30.90,North,351,0.0,5.0,75,0.00,CLR,CLR,0.01,WeatherDisplay:10.37,2013-09-24 22:17:00,
2013-09-24 18:22:00,63.1,55.4,30.90,NNW,344,0.0,4.0,76,0.00,CLR,CLR,0.01,WeatherDisplay:10.37,2013-09-24 22:22:00,
2013-09-24 18:27:00,62.9,55.2,30.90,NNW,340,0.0,4.0,76,0.00,CLR,CLR,0.01,WeatherDisplay:10.37,2013-09-24 22:27:00,
2013-09-24 18:32:00,62.6,55.3,30.90,North,351,0.0,5.0,77,0.00,CLR,CLR,0.01,WeatherDisplay:10.37,2013-09-24 22:32:00,
2013-09-24 18:37:00,62.3,55.0,30.90,NNW,335,0.0,4.0,77,0.00,CLR,CLR,0.01,WeatherDisplay:10.37,2013-09-24 22:37:00,
2013-09-24 18:42:00,62.0,55.1,30.90,NW,324,0.0,3.0,78,0.00,CLR,CLR,0.01,WeatherDisplay:10.37,2013-09-24 22:42:00,
2013-09-24 18:47:00,61.6,54.7,30.90,NNW,329,1.0,3.0,78,0.00,CLR,CLR,0.01,WeatherDisplay:10.37,2013-09-24 22:47:00,
2013-09-24 18:52:00,61.2,54.6,30.90,NNW,330,0.0,1.0,79,0.00,CLR,CLR,0.01,WeatherDisplay:10.37,2013-09-24 22:52:00,
2013-09-24 18:57:00,60.8,54.6,30.90,NNW,331,0.0,0.0,80,0.00,CLR,CLR,0.01,WeatherDisplay:10.37,2013-09-24 22:57:00,
2013-09-24 19:02:00,60.3,54.4,30.90,NNW,331,0.0,0.0,81,0.00,CLR,CLR,0.01,WeatherDisplay:10.37,2013-09-24 23:02:00,
2013-09-24 19:07:00,59.8,54.3,30.90,NNW,331,0.0,0.0,82,0.00,CLR,CLR,0.01,WeatherDisplay:10.37,2013-09-24 23:07:00,
2013-09-24 19:12:00,59.3,54.2,30.89,NNW,331,0.0,0.0,83,0.00,CLR,CLR,0.01,WeatherDisplay:10.37,2013-09-24 23:12:00,
2013-09-24 19:17:00,58.8,53.9,30.89,NNW,331,0.0,0.0,84,0.00,CLR,CLR,0.01,WeatherDisplay:10.37,2013-09-24 23:17:00,
2013-09-24 19:22:00,58.2,53.4,30.89,NNW,331,0.0,0.0,84,0.00,CLR,CLR,0.01,WeatherDisplay:10.37,2013-09-24 23:22:00,
2013-09-24 19:27:00,57.7,53.2,30.89,NNW,331,0.0,0.0,85,0.00,CLR,CLR,0.01,WeatherDisplay:10.37,2013-09-24 23:27:00,
2013-09-24 19:32:00,57.1,52.7,30.89,NNW,331,0.0,0.0,85,0.00,CLR,CLR,0.01,WeatherDisplay:10.37,2013-09-24 23:32:00,
2013-09-24 19:37:00,56.6,52.4,30.89,NNW,331,0.0,0.0,86,0.00,CLR,CLR,0.01,WeatherDisplay:10.37,2013-09-24 23:37:00,
2013-09-24 19:42:00,56.0,52.2,30.89,NNW,331,0.0,0.0,87,0.00,CLR,CLR,0.01,WeatherDisplay:10.37,2013-09-24 23:42:00,
2013-09-24 19:47:00,55.6,52.1,30.89,NNW,331,0.0,0.0,88,0.00,CLR,CLR,0.01,WeatherDisplay:10.37,2013-09-24 23:47:00,
2013-09-24 19:52:00,55.1,51.6,30.89,NNW,331,0.0,0.0,88,0.00,CLR,CLR,0.01,WeatherDisplay:10.37,2013-09-24 23:52:00,
2013-09-24 19:57:00,54.7,51.5,30.89,NNW,331,0.0,0.0,89,0.00,CLR,CLR,0.01,WeatherDisplay:10.37,2013-09-24 23:57:00,
2013-09-24 20:02:00,54.2,51.4,30.89,NNW,331,0.0,0.0,90,0.00,CLR,CLR,0.01,WeatherDisplay:10.37,2013-09-25 00:02:00,
2013-09-24 20:07:00,53.9,51.0,30.89,NNW,331,0.0,0.0,90,0.00,CLR,CLR,0.01,WeatherDisplay:10.37,2013-09-25 00:07:00,
2013-09-24 20:12:00,53.5,50.9,30.89,NNW,331,0.0,0.0,91,0.00,CLR,CLR,0.01,WeatherDisplay:10.37,2013-09-25 00:12:00,
2013-09-24 20:17:00,53.1,50.5,30.89,NNW,331,0.0,0.0,91,0.00,CLR,CLR,0.01,WeatherDisplay:10.37,2013-09-25 00:17:00,
2013-09-24 20:22:00,52.7,50.1,30.88,NNW,331,0.0,0.0,91,0.00,CLR,CLR,0.01,WeatherDisplay:10.37,2013-09-25 00:22:00,
2013-09-24 20:27:00,52.3,49.7,30.88,NNW,331,0.0,0.0,91,0.00,CLR,CLR,0.01,WeatherDisplay:10.37,2013-09-25 00:27:00,
2013-09-24 20:32:00,51.7,49.2,30.88,NNW,331,0.0,0.0,91,0.00,CLR,CLR,0.01,WeatherDisplay:10.37,2013-09-25 00:32:00,
2013-09-24 20:37:00,51.2,48.7,30.88,NNW,331,0.0,0.0,91,0.00,CLR,CLR,0.01,WeatherDisplay:10.37,2013-09-25 00:37:00,
2013-09-24 20:42:00,50.6,48.4,30.88,NNW,331,0.0,0.0,92,0.00,CLR,CLR,0.01,WeatherDisplay:10.37,2013-09-25 00:42:00,
2013-09-24 20:47:00,50.4,48.5,30.88,NNW,331,0.0,0.0,93,0.00,CLR,CLR,0.01,WeatherDisplay:10.37,2013-09-25 00:47:00,
2013-09-24 20:52:00,50.4,48.7,30.88,NNW,331,0.0,0.0,94,0.00,CLR,CLR,0.01,WeatherDisplay:10.37,2013-09-25 00:52:00,
2013-09-24 20:57:00,50.2,48.5,30.88,NNW,331,0.0,0.0,94,0.00,CLR,CLR,0.01,WeatherDisplay:10.37,2013-09-25 00:57:00,
2013-09-24 21:02:00,49.7,47.7,30.88,NNW,331,0.0,0.0,93,0.00,CLR,CLR,0.01,WeatherDisplay:10.37,2013-09-25 01:02:00,
2013-09-24 21:12:00,48.8,47.2,30.88,NNW,331,0.0,0.0,94,0.00,CLR,CLR,0.01,WeatherDisplay:10.37,2013-09-25 01:12:00,
2013-09-24 21:17:00,48.7,47.1,30.88,NNW,331,0.0,0.0,94,0.00,CLR,CLR,0.01,WeatherDisplay:10.37,2013-09-25 01:17:00,
2013-09-24 21:27:00,48.6,47.2,30.88,NNW,331,0.0,0.0,95,0.00,CLR,CLR,0.01,WeatherDisplay:10.37,2013-09-25 01:27:00,
2013-09-24 21:32:00,48.4,47.0,30.88,NNW,331,0.0,0.0,95,0.00,CLR,CLR,0.01,WeatherDisplay:10.37,2013-09-25 01:32:00,
2013-09-24 21:42:00,47.7,46.3,30.88,NNW,331,0.0,0.0,95,0.00,CLR,CLR,0.01,WeatherDisplay:10.37,2013-09-25 01:42:00,
2013-09-24 21:47:00,47.5,46.1,30.88,NNW,331,0.0,0.0,95,0.00,CLR,CLR,0.01,WeatherDisplay:10.37,2013-09-25 01:47:00,
2013-09-24 21:57:00,47.2,45.8,30.88,NNW,331,0.0,0.0,95,0.00,CLR,CLR,0.01,WeatherDisplay:10.37,2013-09-25 01:57:00,
2013-09-24 22:02:00,46.9,45.6,30.88,NNW,331,0.0,0.0,95,0.00,CLR,CLR,0.01,WeatherDisplay:10.37,2013-09-25 02:02:00,
2013-09-24 22:12:00,46.2,44.8,30.88,NNW,331,0.0,0.0,95,0.00,CLR,CLR,0.01,WeatherDisplay:10.37,2013-09-25 02:12:00,
2013-09-24 22:17:00,46.0,44.6,30.88,NNW,331,0.0,0.0,95,0.00,CLR,CLR,0.01,WeatherDisplay:10.37,2013-09-25 02:17:00,
2013-09-24 22:27:00,45.7,44.4,30.88,NNW,331,0.0,0.0,95,0.00,CLR,CLR,0.01,WeatherDisplay:10.37,2013-09-25 02:27:00,
2013-09-24 22:32:00,45.7,44.6,30.88,NNW,331,0.0,0.0,96,0.00,CLR,CLR,0.01,WeatherDisplay:10.37,2013-09-25 02:32:00,
2013-09-24 22:37:00,45.5,44.4,30.88,NNW,331,0.0,0.0,96,0.00,CLR,CLR,0.01,WeatherDisplay:10.37,2013-09-25 02:37:00,
2013-09-24 22:42:00,45.2,44.1,30.88,NNW,331,0.0,0.0,96,0.00,CLR,CLR,0.01,WeatherDisplay:10.37,2013-09-25 02:42:00,
2013-09-24 22:47:00,45.2,44.1,30.88,NNW,331,0.0,0.0,96,0.00,CLR,CLR,0.01,WeatherDisplay:10.37,2013-09-25 02:47:00,
2013-09-24 22:52:00,45.3,44.2,30.89,NNW,331,0.0,0.0,96,0.00,CLR,CLR,0.01,WeatherDisplay:10.37,2013-09-25 02:52:00,
2013-09-24 22:57:00,45.5,44.4,30.89,NNW,331,0.0,0.0,96,0.00,CLR,CLR,0.01,WeatherDisplay:10.37,2013-09-25 02:57:00,
2013-09-24 23:02:00,45.5,44.4,30.89,NNW,331,0.0,0.0,96,0.00,CLR,CLR,0.01,WeatherDisplay:10.37,2013-09-25 03:02:00,
2013-09-24 23:07:00,45.3,44.2,30.89,NNW,331,0.0,0.0,96,0.00,CLR,CLR,0.01,WeatherDisplay:10.37,2013-09-25 03:07:00,
2013-09-24 23:12:00,45.1,44.0,30.89,NNW,331,0.0,0.0,96,0.00,CLR,CLR,0.01,WeatherDisplay:10.37,2013-09-25 03:12:00,
2013-09-24 23:17:00,44.8,43.7,30.89,NNW,331,0.0,0.0,96,0.00,CLR,CLR,0.01,WeatherDisplay:10.37,2013-09-25 03:17:00,
2013-09-24 23:22:00,44.6,43.5,30.89,NNW,331,0.0,0.0,96,0.00,CLR,CLR,0.01,WeatherDisplay:10.37,2013-09-25 03:22:00,
2013-09-24 23:27:00,44.6,43.5,30.89,NNW,331,0.0,0.0,96,0.00,CLR,CLR,0.01,WeatherDisplay:10.37,2013-09-25 03:27:00,
2013-09-24 23:32:00,44.5,43.7,30.89,NNW,331,0.0,0.0,97,0.00,CLR,CLR,0.01,WeatherDisplay:10.37,2013-09-25 03:32:00,
2013-09-24 23:37:00,44.5,43.7,30.89,NNW,331,0.0,0.0,97,0.00,CLR,CLR,0.01,WeatherDisplay:10.37,2013-09-25 03:37:00,
2013-09-24 23:42:00,44.5,43.7,30.89,NNW,331,0.0,0.0,97,0.00,CLR,CLR,0.01,WeatherDisplay:10.37,2013-09-25 03:42:00,
2013-09-24 23:47:00,44.4,43.3,30.89,NNW,331,0.0,0.0,96,0.00,CLR,CLR,0.01,WeatherDisplay:10.37,2013-09-25 03:47:00,
2013-09-24 23:57:00,44.0,43.2,30.89,NNW,331,0.0,0.0,97,0.00,CLR,CLR,0.01,WeatherDisplay:10.37,2013-09-25 03:57:00,